STARLINK-32520, 62021

Orbit data source: Space-Track

STARLINK-32520, 62021 is a payload satellite owned by SpaceX/Seattle (US) in LEO that was launched on Mon, 18 Nov 2024 UTC via an FALCON 9 launch vehicle from the Air Force Western Test Range (AFWTR). Payload-class satellites include a variety of spacecraft equipped with specific instruments for various scientific and technological missions. These include communications satellites like Starlink; space stations such as the ISS; scientific satellites like the Hubble; Earth observation satellites from companies like Planet Labs, Umbra, and HawkEye 360; GPS; miniature CubeSats for education and research; and military/defense satellites.

Loading next visibility...
Identifier
62021, 2024-213P
Orbit
LEO
Country
Flag of USUS
Related business
Manufacturer
SpaceX/Seattle
Mission
Operational Commercial Communications
Bus & Motor
STARLINK V2M, Unknown motor
Mass
730 kg wet, ~700 kg dry
Launch date (UTC)
2024-11-18 (1 year ago)
Launch vehicle
FALCON 9
Launch site
Air Force Western Test Range (AFWTR)
Object type
Payload
Rocket body
Debris
Shape & HBR
Box + 2 Pan, 17.7 m
Radar Cross Section
33.884 m², Large (>1 m²)

Expand to show TLE details & history
Last TLE update: 22 hours ago

TLE from 22 hours ago
0 STARLINK-32520
1 62021U 24213P   26036.96812023  .00012957  00000-0  44864-3 0  9994
2 62021  53.1604 315.7845 0001367  19.2084 340.8968 15.30212986 68296
Epoch: 2026-02-05T23:14Z
TLE epoch observation values (Epoch: 2026-02-05T23:14:05.587Z)
Latitude
-0.00005°
Longitude
-168.85156°
Altitude
475.191 km
Speed
7.63 km/s
True Right ascension
21h 03m 08s
True Declination
0° 00' 00"
Sunlit
Object was in daylight at epoch
Visualization orbit readout
Latitude
Unknown
Longitude
Unknown
Altitude
Unknown
Speed
Unknown
Apparent Right ascension
Unknown
Apparent Declination
Unknown
Sunlit
N/A
Visualization observer readout
Local Sidereal Time
23:19:19
Azimuth
Unknown
Elevation
Unknown
Doppler factor
Unknown
Orbital elements
Apogee altitude
476.37 km
Perigee altitude
474.496 km
Semi-major axis
6,853.57 km
Eccentricity
0.00014
Inclination
53.1604°
RAAN
315.7845°
Arg. of periapsis
19.2084°
True anomaly
340.89167°
Mean anomaly
340.8968°
Eccentric anomaly
340.89424°
Mean motion
3.82532 °/min
Orbital period
94.11 mins
BSTAR
0.00044864
Loading maneuver chart data...
Computing Atmospheric mass density...
Loading historical data...
Loading historical data...
Loading historical data...
Loading historical data...
Loading historical data...
Loading historical data...
Loading historical data...

Documentation

Showing up to 5 results
|